Weather History for Hamilton, OH

Change the Weather History Date:

Friday, November 23, 2012

  Actual Average (KCVG) Record (KCVG)
Temperature  
Mean Temperature 46 °F 42 °F  
Max Temperature 59 °F 50 °F 75 °F (1931)
Min Temperature 32 °F 34 °F 6 °F (1880)
Degree Days  
Heating Degree Days 20 23  
Month to date heating degree days 425  
Since 1 July heating degree days 787  
Cooling Degree Days 0 0  
Month to date cooling degree days 0  
Year to date cooling degree days 1121  
Moisture  
Dew Point 33 °F    
Average Humidity 61    
Maximum Humidity 94    
Minimum Humidity 44    
Precipitation  
Precipitation 0.01 in 0.12 in 1.34 in (1873)
Month to date precipitation 2.59  
Year to date precipitation 38.31  
Snow  
Snow 0.00 in 0.00 in 1.70 in (1945)
Month to date snowfall 0.2  
Since 1 July snowfall 0.6  
Since 1 September snowfall 0.6  
Snow Depth -    
Sea Level Pressure  
Sea Level Pressure 30.06 in    
Wind  
Wind Speed 11 mph (West)    
Max Wind Speed 20 mph    
Max Gust Speed 31 mph    
Visibility 10 miles    
Events Rain    
T = Trace of Precipitation, MM = Missing Value Source: NWS Daily Summary

Daily Weather History Graph

Daily Weather History Graph

Search for Another Location

Airport:

Trip Planner

Search our weather history database for the weather conditions in past years. The results will help you decide how hot, cold, wet, or windy it might be!

Date:

Astronomy

Nov. 23, 2012 Rise Set
Actual Time 7:31 AM EST 5:17 PM EST
Civil Twilight 7:01 AM EST 5:47 PM EST
Nautical Twilight 6:29 AM EST 6:19 PM EST
Astronomical Twilight 5:56 AM EST 6:52 PM EST
Moon 2:30 PM EST (11/23) 2:50 AM EST (11/23)
Length of Visible Light 10h 45m
Length of Day
9h 46m
Waxing Gibbous, 79% of the Moon is Illuminated
Nov 23
Waxing Gibbous
Nov 28
Full
Dec 6
Last Quarter
Dec 13
New
Dec 20
First Quarter

Hourly Weather History & Observations

Time (EST) Temp. Windchill Dew Point Humidity Pressure Visibility Wind Dir Wind Speed Gust Speed Precip Events Conditions
12:53 AM 57.0 °F - 39.9 °F 53% 30.00 in 10.0 mi SW 9.2 mph - N/A   Scattered Clouds
1:53 AM 57.9 °F - 39.9 °F 51% 29.98 in 10.0 mi SW 11.5 mph - 0.00 in   Overcast
2:53 AM 59.0 °F - 39.9 °F 49% 29.97 in 10.0 mi SW 8.1 mph 17.3 mph N/A   Overcast
3:53 AM 57.9 °F - 39.9 °F 51% 29.96 in 10.0 mi SW 10.4 mph - N/A   Overcast
4:09 AM 57.2 °F - 41.0 °F 55% 29.96 in 10.0 mi WSW 8.1 mph 17.3 mph N/A   Overcast
4:53 AM 57.9 °F - 42.1 °F 56% 29.95 in 10.0 mi WSW 8.1 mph - N/A   Overcast
5:53 AM 53.1 °F - 46.9 °F 80% 29.95 in 10.0 mi WSW 6.9 mph - 0.00 in   Overcast
6:27 AM 51.8 °F - 50.0 °F 94% 29.96 in 5.0 mi West 8.1 mph 16.1 mph 0.01 in Rain Light Rain
6:41 AM 53.6 °F - 50.0 °F 88% 29.96 in 10.0 mi West 8.1 mph - 0.01 in   Overcast
6:53 AM 53.1 °F - 48.9 °F 86% 29.97 in 10.0 mi West 11.5 mph - 0.01 in   Overcast
7:03 AM 51.8 °F - 44.6 °F 76% 29.98 in 10.0 mi WNW 13.8 mph 27.6 mph N/A   Overcast
7:53 AM 46.9 °F - 37.9 °F 71% 30.01 in 10.0 mi WNW 8.1 mph - N/A   Overcast
8:53 AM 45.0 °F 40.6 °F 36.0 °F 71% 30.03 in 10.0 mi West 8.1 mph 19.6 mph N/A   Overcast
9:53 AM 46.0 °F 39.9 °F 32.0 °F 58% 30.04 in 10.0 mi West 13.8 mph 21.9 mph N/A   Clear
10:53 AM 46.9 °F - 30.0 °F 52% 30.06 in 10.0 mi West 18.4 mph 27.6 mph N/A   Partly Cloudy
11:53 AM 45.0 °F 37.6 °F 28.0 °F 52% 30.05 in 10.0 mi West 17.3 mph 27.6 mph N/A   Mostly Cloudy
12:53 PM 45.0 °F 37.1 °F 27.0 °F 49% 30.04 in 10.0 mi West 19.6 mph 29.9 mph N/A   Mostly Cloudy
1:53 PM 46.9 °F - 26.1 °F 44% 30.04 in 10.0 mi West 11.5 mph 31.1 mph N/A   Scattered Clouds
2:53 PM 43.0 °F 35.4 °F 25.0 °F 49% 30.05 in 10.0 mi West 16.1 mph 27.6 mph N/A   Mostly Cloudy
3:53 PM 42.1 °F 33.3 °F 25.0 °F 51% 30.09 in 10.0 mi WNW 19.6 mph 25.3 mph N/A   Overcast
4:53 PM 39.9 °F 31.4 °F 24.1 °F 53% 30.12 in 10.0 mi WNW 16.1 mph 27.6 mph N/A   Overcast
5:53 PM 37.9 °F 29.2 °F 25.0 °F 60% 30.15 in 10.0 mi NW 15.0 mph 24.2 mph N/A   Overcast
6:53 PM 35.1 °F 25.5 °F 23.0 °F 61% 30.19 in 10.0 mi NW 15.0 mph 25.3 mph N/A   Overcast
7:53 PM 34.0 °F 24.2 °F 21.9 °F 61% 30.21 in 10.0 mi NW 15.0 mph 23.0 mph N/A   Overcast
8:53 PM 33.1 °F 25.5 °F 21.0 °F 61% 30.22 in 10.0 mi NW 9.2 mph - N/A   Overcast
9:53 PM 33.1 °F 23.9 °F 21.0 °F 61% 30.22 in 10.0 mi NNW 12.7 mph - N/A   Overcast
10:53 PM 32.0 °F 23.0 °F 19.9 °F 61% 30.22 in 10.0 mi NNW 11.5 mph - N/A   Overcast
11:53 PM 32.0 °F 22.5 °F 19.0 °F 59% 30.22 in 10.0 mi WNW 12.7 mph - N/A   Overcast